Temp
59 59 59 59 59 59 59 59 59 59 59 59 59 59 60 60 59 58 60 72 68 69 71 75 76 75 76 73 74 71 64 59 61 60 67 73 72 77 81 77 80 84 84 88 89
59 58 59 59 58 59 59 59 59 58 59 59 59 59 59 59 56 55 69 68 69 70 75 74 71 73 71 70 71 69 62 62 67 69 68 70 71 72 74 76 76 80 87 89 87
59 59 58 58 59 58 58 58 58 59 59 59 59 58 59 59 55 70 72 69 70 72 76 75 74 73 68 69 67 65 63 66 68 71 72 71 71 73 72 72 75 76 84 85 86
59 58 58 58 58 58 58 57 57 58 59 59 59 58 58 55 61 73 73 70 71 74 76 73 71 68 66 65 68 63 68 69 70 72 71 69 73 72 73 76 83 80 81 82 85
58 58 58 58 58 57 57 57 57 57 57 58 58 58 57 58 65 74 72 72 73 74 74 71 70 68 65 66 66 64 67 68 71 71 70 71 70 71 72 79 82 80 78 80 83
58 58 57 57 57 57 57 57 57 56 57 58 58 58 56 58 74 75 73 72 74 74 72 72 72 71 67 66 66 67 67 69 70 71 69 68 72 70 75 80 79 78 79 80 81
58 58 57 57 57 57 57 57 56 57 57 58 58 59 56 65 74 74 73 73 74 75 72 73 74 71 70 65 68 67 63 66 69 71 70 71 68 67 77 77 77 78 78 79 80
57 57 57 57 57 57 57 57 57 57 58 58 59 58 58 71 73 71 73 73 74 75 74 76 76 72 69 69 65 62 61 58 66 66 69 69 61 71 75 73 73 75 76 76 78
57 57 57 57 57 57 56 56 56 58 59 60 57 56 60 71 68 75 75 74 74 74 75 77 74 66 67 62 59 58 55 55 60 66 66 66 61 71 73 71 71 73 74 75 77
57 57 56 57 57 56 55 56 58 59 60 62 61 54 65 67 72 73 74 76 72 72 70 69 67 63 61 60 51 52 52 54 55 64 65 64 63 69 72 72 71 73 74 74 75
57 57 56 56 56 56 55 59 59 56 57 60 63 61 66 74 77 72 74 72 71 69 62 62 60 56 60 60 60 57 54 54 59 64 59 61 61 66 71 70 72 73 74 74 75
57 57 57 56 56 55 54 61 66 66 57 62 63 63 69 71 64 70 75 68 65 59 61 59 55 63 62 60 57 56 54 54 59 62 59 62 60 66 68 69 72 72 74 75 77
56 56 56 56 55 53 57 64 69 68 58 60 62 62 65 69 63 65 72 68 63 59 59 56 60 61 59 58 55 56 54 54 55 62 61 59 58 62 67 67 70 72 74 74 73
55 55 55 55 54 58 61 67 67 66 52 55 60 65 66 68 63 73 75 71 63 59 59 58 65 59 58 56 58 52 61 59 57 54 50 58 46 58 63 64 68 71 73 73 75
55 55 55 54 55 59 65 66 66 64 40 61 61 72 68 66 67 65 73 69 61 59 59 57 58 56 55 59 59 57 60 58 57 54 52 54 49 56 59 59 65 70 73 74 72
55 55 54 53 53 59 63 65 64 50 39 57 63 60 59 64 65 67 67 72 69 61 59 61 64 62 62 63 62 64 60 59 53 52 43 52 50 53 59 62 66 69 70 66 68
55 54 53 57 60 63 65 65 48 39 59 54 57 62 60 58 61 63 60 58 56 50 51 58 59 64 64 59 64 60 54 44 43 43 42 56 50 53 62 66 66 65 65 66 67
53 52 53 58 62 62 65 58 39 48 51 60 59 60 53 57 57 59 57 55 59 57 52 48 46 57 63 60 58 57 55 45 35 39 44 53 44 54 63 65 62 63 63 66 67
51 58 60 63 61 61 62 44 42 48 54 53 55 48 50 54 55 54 52 53 57 57 48 47 47 59 60 61 60 56 50 59 48 50 41 47 53 59 61 60 61 61 63 63 64
52 57 63 65 64 63 57 45 50 56 57 56 44 49 44 48 49 49 49 55 53 60 58 53 44 55 59 60 62 56 59 46 47 33 32 44 45 48 55 56 58 59 61 62 64
55 59 66 64 64 61 49 50 54 59 58 52 47 44 45 43 45 45 45 53 55 56 58 54 47 48 53 51 50 52 49 48 46 44 34 35 44 54 54 54 54 57 60 60 61
52 53 64 63 56 52 50 49 51 54 58 55 55 50 47 48 44 44 43 50 56 55 47 51 46 39 44 55 58 54 50 48 35 34 36 38 40 56 55 56 56 57 58 60 61
49 50 61 61 47 46 48 49 53 51 51 51 50 52 50 47 42 44 47 55 55 52 46 48 38 35 40 47 49 46 49 46 42 36 33 33 43 55 57 57 58 56 58 58 59
51 48 52 52 49 44 41 44 45 53 49 51 50 50 46 43 46 38 43 51 53 52 50 45 42 40 35 41 39 36 38 40 36 33 37 37 42 50 54 52 53 55 56 57 58
48 43 44 40 43 43 42 43 42 42 49 50 46 45 43 38 39 40 45 46 49 50 47 41 34 37 40 41 41 40 42 43 37 38 33 41 43 49 52 50 51 53 54 55 56
48 47 47 44 46 44 42 41 41 43 43 43 43 44 42 36 40 36 42 42 39 47 46 45 37 39 37 43 44 41 44 45 45 45 44 45 44 53 51 52 52 52 53 53 55
47 48 47 42 44 43 43 42 42 44 46 47 45 42 40 43 48 48 48 47 46 43 43 40 39 36 34 42 42 36 44 45 46 48 46 40 49 50 49 50 51 52 52 52 53
MSLP
1017.87 1017.56 1017.32 1017.10 1016.91 1016.73 1016.51 1016.31 1016.25 1016.10 1015.96 1015.85 1015.71 1015.45 1015.25 1015.10 1014.73 1014.43 1013.13 1011.13 1011.27 1011.29 1011.24 1011.25 1011.22 1011.21 1011.05 1011.06 1011.21 1011.54 1011.44 1010.78 1010.51 1010.39 1009.89 1009.93 1009.33 1009.18 1008.94 1008.63 1008.31 1007.79 1007.48 1007.29 1007.03
1017.69 1017.38 1017.09 1016.87 1016.71 1016.55 1016.44 1016.27 1016.10 1016.10 1016.01 1015.77 1015.48 1015.41 1015.18 1014.89 1014.34 1013.15 1010.58 1010.78 1010.84 1010.87 1011.03 1010.87 1010.93 1010.89 1011.00 1011.13 1011.31 1011.31 1011.09 1010.56 1010.45 1010.15 1009.85 1010.07 1009.87 1009.35 1009.08 1008.39 1008.09 1007.79 1007.39 1007.22 1007.24
1017.47 1017.17 1016.93 1016.70 1016.49 1016.35 1016.24 1016.13 1015.98 1015.77 1015.59 1015.45 1015.39 1015.27 1015.04 1014.85 1013.92 1010.45 1009.62 1010.32 1010.66 1010.94 1010.78 1010.78 1010.91 1010.81 1011.05 1011.07 1011.38 1011.38 1010.49 1010.53 1010.20 1010.07 1010.10 1009.97 1009.61 1009.32 1008.93 1008.29 1008.12 1007.76 1007.01 1006.98 1007.01
1017.30 1016.98 1016.73 1016.51 1016.29 1016.10 1015.97 1015.89 1015.76 1015.57 1015.35 1015.19 1015.07 1015.06 1015.01 1014.91 1012.41 1009.87 1009.49 1010.12 1010.63 1010.77 1010.70 1010.68 1010.67 1010.51 1010.59 1010.67 1011.07 1010.87 1010.55 1010.38 1009.87 1009.82 1009.91 1009.52 1009.23 1008.91 1008.79 1008.01 1007.68 1007.71 1007.60 1007.32 1006.81
1017.21 1016.80 1016.49 1016.29 1016.10 1015.94 1015.81 1015.69 1015.59 1015.44 1015.27 1015.07 1014.95 1014.87 1014.59 1013.54 1010.99 1010.04 1009.95 1010.31 1010.66 1010.66 1010.37 1010.39 1010.31 1010.29 1010.16 1010.45 1010.73 1010.51 1010.08 1009.94 1009.61 1009.64 1009.63 1009.36 1008.93 1008.81 1008.49 1007.83 1007.64 1007.38 1007.53 1007.38 1006.99
1017.02 1016.64 1016.37 1016.10 1015.84 1015.73 1015.53 1015.43 1015.25 1015.18 1015.03 1014.96 1014.91 1014.88 1014.42 1012.49 1010.32 1010.20 1010.26 1010.49 1010.36 1010.41 1010.37 1010.44 1010.12 1010.16 1010.20 1010.34 1010.33 1010.24 1010.05 1009.67 1009.35 1009.11 1009.15 1008.89 1008.42 1008.63 1007.81 1007.52 1007.17 1007.49 1007.30 1007.23 1007.14
1016.93 1016.51 1016.18 1015.82 1015.57 1015.35 1015.21 1015.11 1015.00 1014.87 1014.79 1014.76 1014.75 1014.58 1013.64 1011.01 1010.19 1010.23 1010.38 1010.29 1010.35 1010.26 1010.20 1010.38 1010.23 1010.10 1010.12 1010.24 1010.51 1010.42 1010.20 1009.83 1009.20 1008.86 1008.69 1008.75 1008.11 1007.91 1007.53 1007.56 1007.34 1007.17 1007.17 1007.19 1007.06
1016.94 1016.48 1016.01 1015.58 1015.31 1015.05 1014.82 1014.66 1014.63 1014.59 1014.59 1014.61 1014.58 1014.37 1012.06 1010.14 1010.20 1010.17 1010.23 1010.29 1010.44 1010.47 1010.44 1010.39 1010.35 1010.17 1010.21 1010.63 1010.74 1010.55 1010.53 1009.71 1009.13 1009.05 1008.67 1008.70 1007.37 1007.65 1007.51 1007.60 1007.31 1007.16 1007.03 1007.04 1006.95
1016.81 1016.39 1015.91 1015.37 1014.97 1014.71 1014.55 1014.40 1014.23 1014.32 1014.35 1014.35 1014.51 1013.84 1010.93 1009.88 1009.85 1009.37 1009.70 1009.63 1010.03 1010.25 1010.29 1010.23 1010.20 1010.44 1010.61 1010.49 1010.55 1010.71 1009.93 1009.75 1009.19 1009.05 1008.86 1008.56 1007.84 1007.35 1007.55 1007.55 1007.15 1007.03 1006.94 1006.81 1006.53
1016.56 1016.13 1015.67 1015.22 1014.82 1014.50 1014.27 1013.91 1013.71 1014.08 1014.30 1014.31 1013.93 1013.52 1010.42 1009.19 1008.77 1009.04 1009.54 1009.54 1009.57 1009.79 1010.10 1010.23 1010.31 1010.47 1010.75 1010.47 1009.91 1010.05 1010.09 1009.81 1009.34 1009.04 1008.87 1008.39 1007.81 1007.45 1006.93 1006.96 1006.83 1006.65 1006.49 1006.42 1006.25
1016.31 1015.69 1015.24 1014.78 1014.44 1014.27 1014.21 1014.04 1014.06 1013.77 1013.38 1011.82 1011.08 1010.46 1009.39 1008.63 1008.34 1008.70 1009.06 1009.39 1009.47 1009.57 1009.68 1010.29 1010.08 1009.67 1009.86 1010.24 1010.29 1010.37 1010.26 1009.85 1009.56 1009.12 1009.17 1008.01 1007.54 1007.11 1006.72 1006.63 1006.41 1006.27 1005.98 1005.93 1005.72
1016.11 1015.51 1014.83 1014.25 1013.86 1013.45 1013.70 1012.89 1011.67 1011.59 1011.14 1010.18 1009.87 1009.72 1009.19 1008.91 1008.56 1008.43 1008.71 1008.96 1009.29 1009.35 1009.89 1010.25 1009.59 1009.45 1009.87 1010.18 1010.33 1010.29 1009.97 1009.58 1009.22 1008.83 1009.00 1007.77 1007.15 1006.92 1006.61 1006.22 1006.01 1005.81 1005.43 1005.32 1005.21
1015.88 1015.28 1014.70 1013.90 1013.48 1013.47 1012.62 1011.48 1010.97 1011.15 1010.79 1009.26 1009.03 1008.69 1008.43 1008.70 1008.41 1008.10 1008.29 1008.44 1008.71 1009.18 1009.47 1009.42 1009.17 1009.38 1009.65 1009.77 1009.93 1009.75 1009.54 1009.37 1009.05 1008.49 1008.49 1007.84 1006.62 1006.26 1006.07 1006.10 1005.72 1005.42 1005.06 1004.95 1004.86
1015.56 1014.98 1014.47 1013.86 1013.47 1012.72 1011.70 1010.82 1010.96 1011.07 1010.35 1008.77 1008.30 1007.79 1007.96 1007.79 1007.78 1007.50 1007.65 1007.84 1008.52 1008.60 1009.25 1009.17 1008.67 1008.97 1009.23 1009.10 1009.40 1008.96 1008.90 1008.90 1008.84 1008.62 1007.58 1007.95 1005.80 1005.48 1005.49 1005.29 1004.93 1004.59 1004.50 1004.51 1004.40
1014.97 1014.43 1014.12 1014.20 1013.19 1012.32 1011.33 1010.94 1010.82 1010.96 1009.78 1008.05 1007.71 1007.44 1007.52 1007.52 1007.16 1007.35 1007.39 1007.53 1007.76 1008.41 1009.00 1008.38 1008.43 1008.53 1008.37 1007.97 1008.86 1008.29 1008.72 1008.79 1008.73 1008.41 1008.10 1007.47 1006.24 1004.85 1005.31 1004.76 1004.36 1004.22 1004.18 1004.45 1004.99
1014.24 1013.68 1013.33 1013.15 1013.23 1011.58 1011.14 1011.00 1010.85 1010.68 1009.09 1007.76 1007.57 1007.59 1007.77 1007.37 1007.13 1007.25 1007.40 1007.59 1007.93 1008.41 1008.62 1008.13 1008.35 1008.15 1007.63 1007.77 1008.06 1008.16 1008.30 1008.31 1008.77 1008.41 1007.13 1006.86 1006.31 1004.31 1004.16 1004.05 1003.82 1004.16 1004.56 1005.30 1005.36
1013.35 1012.53 1012.38 1012.27 1011.64 1011.22 1010.95 1010.68 1010.84 1010.43 1009.25 1008.70 1008.12 1007.88 1007.72 1007.70 1007.49 1007.36 1007.65 1007.81 1007.95 1008.34 1008.31 1007.76 1007.62 1007.60 1007.76 1007.54 1007.55 1008.01 1008.30 1007.71 1007.27 1007.03 1005.68 1005.87 1005.27 1004.17 1004.05 1004.04 1004.27 1004.65 1005.08 1005.41 1005.58
1012.82 1012.06 1012.15 1011.87 1011.47 1011.32 1010.65 1010.45 1010.79 1010.90 1010.07 1009.57 1009.06 1008.50 1008.67 1008.77 1008.63 1008.37 1008.24 1008.21 1008.35 1008.57 1008.47 1008.12 1007.53 1007.43 1007.25 1007.22 1006.98 1007.21 1007.64 1007.59 1006.35 1006.14 1005.71 1006.02 1004.62 1003.99 1004.36 1004.67 1005.15 1005.43 1005.64 1005.62 1005.51
1012.59 1012.11 1011.78 1011.40 1011.25 1011.34 1010.77 1010.65 1011.26 1011.21 1010.89 1010.50 1010.21 1010.46 1010.13 1009.99 1009.75 1009.53 1009.59 1009.26 1009.02 1009.05 1009.17 1008.67 1008.17 1007.91 1007.65 1007.51 1007.51 1007.15 1007.51 1007.43 1007.17 1006.90 1006.26 1005.66 1004.69 1004.73 1004.74 1005.13 1005.49 1005.71 1005.84 1005.83 1005.71
1013.37 1012.43 1011.70 1011.27 1011.19 1010.99 1010.87 1011.29 1011.52 1011.43 1011.20 1011.12 1011.70 1011.80 1011.62 1011.55 1011.33 1011.37 1010.96 1010.39 1010.19 1009.85 1010.01 1009.63 1008.85 1008.57 1008.08 1007.98 1007.38 1007.57 1008.14 1008.40 1008.44 1007.48 1006.23 1004.80 1004.83 1004.51 1004.84 1005.40 1005.95 1006.07 1006.01 1005.95 1005.76
1013.33 1012.37 1011.65 1011.31 1011.33 1011.00 1011.38 1011.70 1011.72 1011.73 1011.64 1012.00 1012.42 1012.84 1013.00 1013.03 1012.87 1012.71 1012.14 1011.15 1011.33 1010.77 1010.72 1010.64 1010.29 1009.41 1009.33 1008.47 1008.01 1008.13 1008.27 1009.26 1009.66 1009.01 1007.81 1005.81 1004.78 1005.24 1005.54 1006.21 1006.49 1006.44 1006.36 1006.21 1005.96
1013.89 1012.92 1012.11 1011.26 1011.83 1012.63 1012.71 1012.91 1012.60 1012.35 1012.20 1012.23 1012.47 1012.85 1013.19 1013.25 1013.29 1013.03 1012.44 1011.71 1011.97 1011.95 1011.98 1011.87 1011.31 1010.39 1009.75 1009.21 1009.03 1009.03 1009.11 1009.67 1010.34 1010.07 1009.55 1008.07 1005.56 1006.15 1006.51 1006.83 1007.07 1007.02 1007.02 1006.99 1006.77
1015.12 1014.47 1012.88 1012.15 1013.31 1013.99 1014.23 1013.85 1013.46 1013.29 1013.19 1012.99 1013.01 1013.37 1013.70 1013.66 1013.79 1013.55 1012.89 1012.41 1012.55 1012.74 1012.86 1013.09 1012.56 1011.53 1010.19 1009.99 1009.93 1009.81 1009.85 1010.56 1010.96 1011.03 1009.78 1008.66 1006.30 1006.73 1006.76 1006.70 1006.93 1007.21 1007.32 1007.34 1007.11
1015.82 1015.29 1014.92 1014.87 1015.85 1015.55 1015.46 1014.96 1014.42 1014.20 1014.14 1014.05 1013.91 1014.12 1014.40 1014.54 1014.65 1014.46 1013.78 1013.23 1013.37 1013.46 1014.01 1014.32 1013.27 1012.31 1011.26 1010.79 1011.57 1011.25 1011.27 1011.62 1011.53 1010.93 1009.65 1008.58 1007.16 1006.92 1007.01 1007.43 1007.66 1007.70 1007.60 1007.39 1007.05
1016.85 1017.33 1017.49 1016.76 1016.71 1016.74 1016.54 1016.05 1015.40 1015.06 1014.88 1014.74 1014.56 1014.77 1014.99 1015.07 1014.93 1014.53 1014.21 1014.02 1013.87 1013.84 1014.17 1014.57 1013.82 1013.25 1012.51 1012.01 1011.75 1011.27 1010.76 1010.64 1010.85 1010.56 1009.79 1008.19 1007.48 1007.11 1007.34 1007.85 1007.98 1007.93 1007.70 1007.31 1006.78
1017.71 1017.84 1017.95 1017.63 1017.27 1016.87 1016.71 1016.48 1016.17 1015.92 1015.85 1015.39 1015.31 1015.30 1015.55 1015.60 1015.37 1014.97 1014.88 1014.60 1014.23 1013.81 1013.75 1014.13 1013.57 1013.17 1012.42 1011.69 1011.09 1010.24 1009.55 1009.43 1009.28 1009.06 1008.71 1008.13 1007.14 1007.52 1007.97 1008.08 1007.91 1007.69 1007.42 1007.04 1006.56
1018.65 1018.62 1018.21 1018.03 1017.43 1017.19 1016.93 1016.86 1016.82 1016.69 1016.07 1015.91 1015.83 1015.79 1015.54 1015.25 1015.10 1014.79 1014.59 1014.36 1014.03 1013.89 1013.76 1014.14 1013.75 1013.31 1011.94 1011.47 1010.76 1009.46 1008.32 1008.21 1008.07 1008.19 1008.18 1007.74 1007.32 1007.94 1007.94 1007.90 1007.77 1007.51 1007.38 1006.96 1006.59
Wind_Speed
13 12 11 11 11 11 11 11 11 11 11 10 10 10 11 12 11 2 7 6 6 7 7 4 3 4 3 3 3 2 3 6 6 6 3 3 2 3 4 5 4 3 7 9 9
13 13 12 11 11 11 11 10 10 10 9 10 10 10 10 11 5 9 9 7 5 12 5 6 6 6 4 4 3 4 5 8 4 5 4 3 5 5 7 11 5 9 7 7 5
15 13 12 12 11 10 10 10 10 10 9 9 10 10 9 8 4 3 4 12 11 8 4 4 8 4 5 4 4 5 6 5 6 9 7 7 10 3 4 9 7 10 13 13 12
17 15 13 12 11 10 10 10 10 9 9 9 9 8 8 2 2 3 3 13 11 6 6 7 5 5 5 7 5 5 7 7 3 4 4 7 3 5 9 10 12 12 11 12 12
18 17 15 13 11 10 9 9 9 9 9 9 7 6 3 2 6 5 12 12 8 6 7 6 6 4 5 5 6 5 3 4 5 8 7 4 9 6 8 12 11 8 5 5 9
18 18 16 14 12 11 9 9 9 9 9 7 4 2 2 5 3 4 9 9 7 5 6 5 4 3 5 3 4 4 4 7 6 6 4 7 8 6 5 7 10 2 3 4 6
18 18 17 15 14 12 11 10 10 9 7 5 3 2 2 9 2 4 8 4 6 3 4 2 3 2 5 4 2 2 4 5 10 8 7 4 13 8 6 3 6 8 7 7 8
17 17 18 16 14 13 13 12 10 8 6 4 4 1 7 2 1 6 8 3 3 4 1 2 3 3 1 6 3 3 2 6 2 2 2 7 16 10 4 2 4 7 8 8 10
17 16 17 17 15 13 13 13 12 8 5 5 3 2 7 3 4 6 8 6 7 4 3 1 1 3 3 3 3 1 7 4 6 2 3 4 3 9 4 4 7 6 7 8 11
18 17 17 16 15 13 12 11 4 7 4 4 4 5 6 2 4 6 5 3 3 5 4 3 3 3 3 6 6 3 4 3 6 1 7 14 14 12 15 11 11 10 9 8 8
20 19 18 17 17 9 4 3 3 3 5 8 5 3 4 4 3 5 5 8 2 2 6 2 7 11 11 9 5 3 5 9 11 11 7 13 13 13 15 11 12 13 11 10 10
21 21 21 19 18 10 6 4 2 2 8 14 15 10 9 2 3 4 11 9 6 8 4 4 11 12 7 6 8 7 10 11 11 8 8 13 14 13 12 11 14 14 12 13 11
20 21 20 20 19 3 3 4 6 4 5 4 5 5 5 11 6 5 12 8 5 8 9 11 4 6 9 9 9 9 11 8 11 11 7 11 16 12 10 7 11 14 15 13 14
20 20 19 20 2 2 4 1 2 4 4 3 2 1 5 6 6 9 10 8 4 11 8 9 11 12 9 10 9 13 9 14 12 11 13 3 14 17 13 13 15 16 14 15 15
23 21 18 10 6 4 3 4 5 2 4 3 3 6 3 6 1 4 5 4 10 6 6 4 4 5 9 14 11 10 5 8 11 12 12 15 16 8 5 10 14 14 16 12 11
25 24 19 1 4 7 6 5 2 0 2 5 3 2 5 4 2 4 6 2 1 6 5 13 2 4 6 2 13 3 11 11 4 6 13 15 16 10 12 16 10 7 5 7 9
29 27 8 4 0 3 5 4 3 1 8 7 6 4 3 2 3 2 4 9 9 6 9 12 17 14 8 14 14 12 11 8 10 11 16 12 15 13 8 10 9 8 6 9 10
30 13 4 3 4 6 1 2 4 4 6 9 10 7 7 12 7 8 2 3 3 7 7 7 9 4 5 11 11 8 8 9 15 14 17 8 10 7 6 4 4 3 4 10 13
20 2 0 5 1 2 1 5 3 3 5 9 7 8 7 8 5 9 11 5 3 2 3 4 6 3 1 1 1 4 10 11 19 19 14 13 15 10 8 4 1 3 8 13 16
4 3 5 11 1 1 3 5 5 3 3 7 3 6 5 8 4 8 1 9 9 6 5 7 14 8 11 5 9 9 4 8 5 9 16 10 9 8 10 4 5 8 14 16 17
2 2 6 13 2 3 3 3 4 6 2 1 4 4 5 5 5 7 6 12 5 9 13 6 5 8 6 8 14 13 15 15 7 9 8 15 9 2 5 6 9 13 14 16 17
3 2 7 7 3 3 2 4 5 5 7 2 7 10 11 7 6 7 11 8 6 7 8 5 5 8 14 12 16 15 16 10 5 6 6 10 11 4 6 7 10 11 11 11 14
3 3 4 5 3 3 3 3 3 4 5 4 3 4 3 1 5 6 5 1 5 3 3 3 5 5 5 5 2 5 6 7 6 2 8 9 5 5 6 16 16 12 9 9 11
2 2 4 6 3 3 4 3 3 7 3 4 3 3 2 4 6 4 5 4 5 7 7 2 5 11 13 16 3 4 3 5 3 4 5 8 19 18 16 12 11 9 10 11 13
4 3 2 3 5 4 2 3 3 4 3 3 0 1 3 4 4 8 6 5 7 6 6 4 4 8 13 14 13 15 19 17 16 17 14 21 22 20 16 9 9 11 11 14 17
2 2 1 2 3 4 1 1 3 2 3 4 5 5 1 4 6 13 18 14 8 5 7 7 5 3 9 13 15 19 21 22 21 20 21 20 24 11 4 6 10 11 13 17 17
1 1 1 1 3 3 2 3 4 9 4 6 7 9 10 14 11 13 14 16 15 11 7 5 5 3 7 8 13 14 9 14 15 12 9 13 12 4 10 12 13 16 16 18 17
Wind_Direction
333 327 319 315 312 309 308 311 308 311 312 312 312 318 318 320 323 223 239 217 180 236 175 127 100 108 87 103 94 143 181 214 213 196 222 185 12 331 310 283 300 264 302 315 331
343 334 325 319 311 307 303 300 302 300 302 306 316 317 321 328 312 262 238 193 172 174 155 155 141 136 101 121 132 193 211 212 208 210 251 296 302 324 313 306 275 288 282 309 338
346 340 332 323 313 306 300 296 295 298 300 307 311 316 325 322 276 246 173 195 192 187 141 126 135 145 144 156 168 165 224 203 228 225 250 278 281 231 271 289 280 283 307 319 319
349 342 339 328 317 308 301 296 293 293 299 305 312 316 315 235 159 360 261 169 173 169 136 135 141 142 150 166 172 207 228 218 229 223 241 255 263 247 225 256 289 272 289 295 299
351 348 341 335 323 311 302 294 291 291 299 305 311 320 318 258 260 6 132 148 143 156 161 155 158 152 164 157 154 218 252 214 248 278 248 250 248 249 228 257 280 295 267 270 295
354 352 347 339 332 317 302 292 286 288 295 301 302 293 244 249 109 159 133 145 156 163 165 170 170 174 116 148 210 181 264 294 297 280 277 272 275 183 243 285 295 281 291 283 289
350 355 352 343 336 325 310 296 284 281 285 287 263 232 250 244 97 176 162 175 171 178 159 191 155 187 146 146 125 152 273 293 262 267 254 210 260 238 259 270 274 309 311 308 299
346 347 350 345 339 328 317 303 288 276 264 251 219 227 256 242 127 152 179 164 208 230 239 195 174 91 307 109 72 214 220 260 137 294 271 217 270 292 209 195 286 302 303 303 291
344 343 341 339 337 330 318 305 281 260 226 181 168 247 268 322 237 192 180 177 172 192 220 219 97 68 140 177 256 72 263 257 297 296 246 241 296 311 243 305 284 273 283 292 297
343 340 336 333 330 327 327 320 111 144 158 173 256 278 245 165 173 155 175 163 147 146 135 147 100 172 140 196 246 190 213 218 271 271 310 292 280 276 285 286 286 295 283 276 287
339 336 334 330 325 320 321 148 193 176 213 216 183 252 290 306 157 171 157 148 106 100 196 84 217 222 222 217 237 243 259 272 275 278 283 278 283 280 285 290 276 283 272 265 265
333 333 331 329 327 313 160 207 220 8 288 230 246 261 257 352 333 155 162 175 178 201 145 204 244 242 223 206 218 233 265 273 278 274 208 288 283 283 271 266 266 268 269 257 266
329 328 329 329 330 163 212 224 126 134 278 285 195 212 207 179 221 227 182 154 180 196 204 232 236 99 205 216 226 231 246 258 266 301 242 276 278 264 261 244 259 251 253 271 269
324 323 330 333 233 320 236 107 146 191 305 272 228 167 154 166 206 197 184 169 181 219 199 250 265 244 232 243 222 264 230 252 272 292 288 350 287 278 276 259 247 258 257 258 264
320 319 323 317 303 234 81 357 134 208 328 45 82 148 157 203 85 159 177 169 200 172 190 213 196 174 211 244 180 256 182 245 271 272 284 272 272 265 227 251 255 257 266 293 322
317 318 321 195 201 253 306 299 183 143 284 9 112 125 155 247 4 108 175 149 180 205 239 263 217 244 261 224 201 275 291 285 256 272 252 261 251 262 256 258 276 265 318 349 343
322 321 305 181 62 323 290 183 98 177 332 4 344 323 237 232 238 267 170 191 214 198 231 260 252 254 247 270 255 251 263 274 260 241 269 283 263 269 262 233 253 296 341 355 343
328 334 142 235 290 333 170 144 97 333 350 346 349 35 67 21 34 29 77 234 216 251 274 268 270 213 172 219 261 228 229 253 271 278 283 247 254 249 233 272 113 108 359 348 345
325 355 89 355 222 220 128 66 106 359 337 350 29 26 2 13 33 20 355 351 13 150 271 279 241 297 330 30 217 249 244 281 270 269 269 246 261 258 235 218 329 17 0 350 340
337 338 31 345 270 299 83 113 150 57 45 36 325 349 338 2 30 18 263 268 329 341 27 256 279 253 270 305 250 238 337 267 231 277 266 246 256 259 256 196 12 348 343 341 340
349 64 0 347 262 57 87 85 120 87 104 148 235 248 272 305 303 293 279 297 347 328 314 316 259 245 304 239 266 277 254 241 287 269 272 283 270 55 129 73 355 344 346 347 345
351 67 355 341 33 25 60 345 341 15 26 274 230 223 235 243 237 220 231 221 246 286 297 344 300 256 253 267 276 282 265 234 228 201 240 280 268 100 90 3 354 348 345 341 339
36 318 346 329 61 43 351 353 353 33 19 356 321 21 10 319 268 306 300 178 79 332 5 352 221 276 253 222 102 263 288 282 253 170 220 250 260 145 279 326 335 336 331 326 330
15 25 14 40 27 40 5 11 3 0 93 2 301 74 294 269 248 275 267 288 280 279 314 1 251 252 266 292 263 263 242 257 214 249 276 257 283 286 300 305 304 310 318 321 323
12 67 26 17 48 25 317 339 350 349 354 19 73 3 248 262 257 249 264 272 285 273 208 207 242 250 271 275 267 265 264 256 246 254 259 280 283 291 305 296 296 302 305 311 318
36 354 100 113 332 355 73 99 317 6 319 305 274 317 276 238 263 291 294 283 258 267 210 186 271 253 276 276 272 278 269 259 257 264 266 271 276 307 260 268 283 298 305 309 314
68 93 330 348 357 323 358 36 337 333 276 252 316 315 288 280 294 284 276 272 252 239 246 209 243 252 268 313 311 279 275 254 251 246 258 261 290 278 285 294 306 307 308 306 307